DW9727 Weather Reports


Display with metric or nautical units.
time (UTC)temp
F
wind
direction
speed
MPH
gust
MPH
rain 1hr
in
rain 24hr
in
rain mn
in
humidity
%
barometer
mb
20260507083710 46 219 11.0 17.0 0.00 0.00 0.00 70 1012.6
20260507082711 46 225 9.0 14.0 0.00 0.00 0.00 70 1012.6
20260507080711 46 215 7.0 15.0 0.00 0.00 0.00 69 1012.9
20260507075710 46 205 6.0 12.0 0.00 0.00 0.00 68 1012.9
20260507074710 46 213 6.0 9.0 0.00 0.00 0.00 68 1013.1
20260507073710 46 234 6.0 12.0 0.00 0.00 0.00 68 1013.2
20260507072710 46 205 6.0 12.0 0.00 0.00 0.00 67 1013.5
20260507071710 47 209 6.0 8.0 0.00 0.00 0.00 66 1013.6
20260507070710 47 223 5.0 10.0 0.00 0.00 0.00 64 1013.9
20260507064710 49 213 7.0 15.0 0.00 0.00 0.00 62 1014.0
20260507063711 49 233 9.0 15.0 0.00 0.00 0.00 62 1014.2
20260507062711 49 217 8.0 14.0 0.00 0.00 0.00 62 1014.1
20260507061711 49 245 8.0 14.0 0.00 0.00 0.00 62 1014.2
20260507060710 49 217 9.0 13.0 0.00 0.00 0.00 62 1014.3
20260507055710 48 212 7.0 13.0 0.00 0.00 0.00 63 1014.5
20260507054710 47 218 6.0 12.0 0.00 0.00 0.00 65 1014.5
20260507053711 46 219 3.0 7.0 0.00 0.00 0.00 64 1014.7
20260507052711 46 215 4.0 7.0 0.00 0.00 0.00 61 1014.8
20260507051711 46 217 2.0 3.0 0.00 0.00 0.00 57 1014.8
20260507044710 48 211 5.0 7.0 0.00 0.00 0.00 51 1014.9
20260507043711 49 217 3.0 6.0 0.00 0.00 0.00 48 1015.1
20260507042711 49 215 4.0 5.0 0.00 0.00 0.00 46 1015.2
20260507041710 50 194 1.0 3.0 0.00 0.00 0.00 45 1015.1
20260507035711 51 195 2.0 5.0 0.00 0.00 0.00 43 1015.2
20260507034711 51 211 2.0 3.0 0.00 0.00 0.00 43 1015.3
20260507033710 51 203 2.0 3.0 0.00 0.00 0.00 42 1015.3
20260507032710 50 201 2.0 3.0 0.00 0.00 0.00 42 1015.4
20260507030711 50 182 1.0 3.0 0.00 0.00 0.00 42 1015.5
20260507025711 51 194 1.0 2.0 0.00 0.00 0.00 41 1015.4
20260507024711 51 217 0.0 2.0 0.00 0.00 0.00 40 1015.4
20260507023711 52 217 1.0 3.0 0.00 0.00 0.00 39 1015.5
20260507021710 53 217 1.0 2.0 0.00 0.00 0.00 36 1015.3
20260507020711 53 211 1.0 3.0 0.00 0.00 0.00 36 1015.3
20260507015710 54 211 2.0 3.0 0.00 0.00 0.00 35 1015.2
20260507014710 54 214 2.0 3.0 0.00 0.00 0.00 35 1015.2
20260507013711 55 252 0.0 2.0 0.00 0.00 0.00 33 1015.2
20260507012711 57 252 1.0 3.0 0.00 0.00 0.00 32 1015.2
20260507011711 58 232 3.0 5.0 0.00 0.00 0.00 31 1015.2
20260507010710 58 265 1.0 6.0 0.00 0.00 0.00 30 1015.2
20260507005710 58 259 2.0 7.0 0.00 0.00 0.00 29 1015.2
20260507004710 59 259 5.0 10.0 0.00 0.00 0.00 27 1015.2
20260507003710 59 249 6.0 10.0 0.00 0.00 0.00 29 1015.3
20260507002710 59 250 5.0 13.0 0.00 0.00 0.00 28 1015.2
20260507001710 60 252 9.0 12.0 0.00 0.00 0.00 26 1015.3
20260507000710 60 256 6.0 12.0 0.00 0.00 0.00 28 1015.3
20260506235710 59 292 5.0 12.0 0.00 0.00 0.00 30 1015.4
20260506234711 59 278 10.0 16.0 0.00 0.00 0.00 30 1015.5
20260506233710 60 284 3.0 12.0 0.00 0.00 0.00 26 1015.7
20260506232711 60 322 5.0 12.0 0.00 0.00 0.00 30 1015.8
20260506230710 62 289 7.0 15.0 0.00 0.00 0.00 28 1015.9
20260506225710 62 313 7.0 15.0 0.00 0.00 0.00 32 1015.8
20260506224710 60 5 7.0 12.0 0.00 0.00 0.00 28 1016.1
20260506223711 61 232 6.0 16.0 0.00 0.00 0.00 27 1016.0
20260506221710 59 263 5.0 12.0 0.00 0.00 0.00 29 1016.1
20260506220710 61 319 9.0 15.0 0.00 0.00 0.00 27 1016.3
20260506215710 62 12 7.0 18.0 0.00 0.00 0.00 30 1016.3
20260506214710 62 266 9.0 15.0 0.00 0.00 0.00 30 1016.4
20260506213710 62 313 5.0 12.0 0.00 0.00 0.00 27 1016.4
20260506212710 60 259 7.0 17.0 0.00 0.00 0.00 33 1016.7
20260506211710 60 299 5.0 12.0 0.00 0.00 0.00 36 1016.8
20260506210710 60 282 6.0 16.0 0.00 0.00 0.00 30 1017.2
20260506205711 59 324 13.0 20.0 0.00 0.00 0.00 34 1017.1
20260506204710 58 268 9.0 18.0 0.00 0.00 0.00 31 1017.5
20260506203711 59 285 9.0 13.0 0.00 0.00 0.00 36 1017.5
20260506201710 61 333 11.0 15.0 0.00 0.00 0.00 39 1017.7
20260506194711 58 228 10.0 17.0 0.00 0.00 0.00 32 1018.1
20260506193710 57 290 5.0 14.0 0.00 0.00 0.00 32 1018.1
20260506192710 58 281 9.0 16.0 0.00 0.00 0.00 34 1018.3
20260506191710 58 334 6.0 18.0 0.00 0.00 0.00 37 1018.1
20260506190711 60 315 9.0 23.0 0.00 0.00 0.00 37 1018.3
20260506185711 60 314 12.0 16.0 0.00 0.00 0.00 38 1018.4
20260506184710 58 333 9.0 16.0 0.00 0.00 0.00 34 1018.6
20260506183710 58 301 13.0 20.0 0.00 0.00 0.00 34 1018.7
20260506182710 58 12 9.0 20.0 0.00 0.00 0.00 35 1018.7
20260506181710 56 307 12.0 25.0 0.00 0.00 0.00 38 1018.8
20260506180710 58 304 6.0 18.0 0.00 0.00 0.00 35 1018.8
20260506173710 56 316 9.0 18.0 0.00 0.00 0.00 34 1019.2
20260506172711 56 309 12.0 17.0 0.00 0.00 0.00 36 1019.3
20260506171710 57 318 12.0 23.0 0.00 0.00 0.00 38 1019.4
20260506170710 58 335 12.0 21.0 0.00 0.00 0.00 38 1019.5
20260506165710 57 306 14.0 20.0 0.00 0.00 0.00 38 1019.6
20260506164711 55 309 8.0 17.0 0.00 0.00 0.00 43 1019.6
20260506163711 57 317 10.0 18.0 0.00 0.00 0.00 40 1019.6
20260506162711 54 330 10.0 17.0 0.00 0.00 0.00 38 1019.9
20260506161710 53 298 4.0 12.0 0.00 0.00 0.00 41 1019.9
20260506160711 54 306 10.0 16.0 0.00 0.00 0.00 36 1019.9
20260506155711 54 313 10.0 16.0 0.00 0.00 0.00 42 1019.7
20260506154711 54 296 10.0 15.0 0.00 0.00 0.00 40 1019.8
20260506153710 54 313 6.0 14.0 0.00 0.00 0.00 40 1019.8
20260506152710 52 297 6.0 15.0 0.00 0.00 0.00 43 1019.8
20260506151711 53 326 5.0 14.0 0.00 0.00 0.00 43 1019.6
20260506150711 53 329 7.0 12.0 0.00 0.00 0.00 47 1020.0
20260506145710 52 295 8.0 15.0 0.00 0.00 0.00 43 1019.9
20260506144711 51 269 5.0 12.0 0.00 0.00 0.00 43 1019.9
20260506142711 50 217 5.0 9.0 0.00 0.00 0.00 44 1019.9
20260506141711 49 227 5.0 7.0 0.00 0.00 0.00 45 1019.8
20260506140711 49 249 3.0 7.0 0.00 0.00 0.00 49 1019.9
20260506134711 47 228 2.0 3.0 0.00 0.00 0.00 50 1019.7
20260506133711 46 279 1.0 3.0 0.00 0.00 0.00 56 1019.5
20260506132710 44 284 2.0 3.0 0.00 0.00 0.00 57 1019.6
20260506131710 42 277 2.0 3.0 0.00 0.00 0.00 61 1019.4
20260506130710 41 311 3.0 5.0 0.00 0.00 0.00 65 1019.3
20260506125711 40 294 3.0 6.0 0.00 0.00 0.00 65 1019.4
20260506124710 39 303 2.0 5.0 0.00 0.00 0.00 68 1019.3
20260506123711 38 296 3.0 5.0 0.00 0.00 0.00 69 1019.2
20260506122710 37 287 3.0 5.0 0.00 0.00 0.00 71 1019.0
20260506115710 35 299 3.0 3.0 0.00 0.00 0.00 71 1018.9
20260506114711 35 291 2.0 3.0 0.00 0.00 0.00 71 1018.9
20260506113711 34 305 2.0 3.0 0.00 0.00 0.00 70 1018.5
20260506112710 34 294 2.0 3.0 0.00 0.00 0.00 69 1018.7
20260506111711 35 294 1.0 2.0 0.00 0.00 0.00 69 1018.3
20260506110710 35 294 1.0 2.0 0.00 0.00 0.00 70 1018.3
20260506105710 35 294 1.0 3.0 0.00 0.00 0.00 71 1018.2
20260506104711 35 294 1.0 2.0 0.00 0.00 0.00 70 1018.1
20260506103711 35 294 1.0 3.0 0.00 0.00 0.00 69 1017.9
20260506102711 35 294 2.0 3.0 0.00 0.00 0.00 69 1018.0
20260506101711 35 296 1.0 3.0 0.00 0.00 0.00 69 1018.0
20260506095710 35 292 2.0 3.0 0.00 0.00 0.00 70 1017.8
20260506093710 36 298 0.0 2.0 0.00 0.00 0.00 67 1017.7
20260506092710 36 297 0.0 2.0 0.00 0.00 0.00 67 1017.5
20260506091710 37 302 1.0 3.0 0.00 0.00 0.00 67 1017.5
20260506090712 37 331 1.0 3.0 0.00 0.00 0.00 67 1017.5
20260506085710 37 313 1.0 3.0 0.00 0.00 0.00 67 1017.5